User: anonymous   Login
Location: Abundant Grace Fellowship
(35.0349°N, 90.0924°W)
Time: 00:19:45
(UTC+00:00)
Language:

SAR-Lupe-4 - Orbit

View from above orbital plane
View from above orbital plane
View from above satellite
View from above satellite

Ground track
Ground track

The orbit is defined by the following mean orbital elements,

1 32750U 08014A   26010.73675071 0.00008500  00000-0  31147-3 0    00
2 32750  98.1348  28.4344 0002081 287.3060  72.6939 15.28033546    07
Epoch (UTC): 10 January 2026 17:40:55
Eccentricity: 0.0002081
inclination: 98.1348°
perigee height: 480 km
apogee height: 483 km
right ascension of ascending node: 28.4344°
argument of perigee: 287.3060°
revolutions per day: 15.28033546
mean anomaly at epoch: 72.6939°

The dashed part of the orbit path shows where the satellite is in the earth's shadow,  

DLR